Terug naar catalogus

FENGYUN 1C DEB

ActiefSSO
NORAD 30765·DEBRIS·🇨🇳 China

Gelanceerd May 10, 1999 vanaf Taiyuan Satellite Launch Center

Loading…

Volgende Passages (komende 24 uur)

TLE

VersSource: Space-Track

Epoch: Sep 14, 2026, 15:11 UTC

1 30765U 99025AUB 26257.63301279  .00000844  00000-0  44465-3 0  9991
2 30765  98.7617 304.0946 0068643 142.0037  12.0085 14.15418712  7019

Volg FENGYUN 1C DEB in realtime met AllMySat

Download on the App Store